Ogden Hill AFB, UT

6:19 AM MDT on June 28, 2017 (GMT -0600)
Hill Air Force Base

Weather History for KHIF - July, 2013

Change the Weather History Date:

Sunday, July 7, 2013

  Actual Average Record
Temperature  
Mean Temperature 76 °F -  
Max Temperature 87 °F 85 °F 98 °F (2002)
Min Temperature 65 °F 61 °F 58 °F (2016)
Cooling Degree Days 11    
Growing Degree Days 26 (Base 50)    
Moisture  
Dew Point 52 °F    
Average Humidity 45    
Maximum Humidity 64    
Minimum Humidity 27    
Precipitation  
Precipitation 0.00 in - - ()
Sea Level Pressure  
Sea Level Pressure 29.89 in    
Wind  
Wind Speed 11 mph (ESE)    
Max Wind Speed 29 mph    
Max Gust Speed 34 mph    
Visibility 10 miles    
Events Rain , Thunderstorm    
Averages and records for this station are not official NWS values.
T = Trace of Precipitation, MM = Missing Value Source: NWS Daily Summary

Daily Weather History Graph

Daily Weather History Graph

Search for Another Location

Airport or City:

Trip Planner

Search our weather history database for the weather conditions in past years. The results will help you decide how hot, cold, wet, or windy it might be!

Date:

Astronomy

Jul. 07, 2013 Rise Set
Actual Time 6:02 AM MDT 9:02 PM MDT
Civil Twilight 5:29 AM MDT 9:35 PM MDT
Nautical Twilight 4:47 AM MDT 10:17 PM MDT
Astronomical Twilight 3:57 AM MDT 11:07 PM MDT
Moon 5:42 AM MDT (7/7) 8:28 PM MDT (7/7)
Length of Visible Light 16h 06m
Length of Day
14h 59m
Waning Crescent, 0% of the Moon is Illuminated
Jul 7
Waning Crescent
Jul 8
New
Jul 15
First Quarter
Jul 22
Full
Jul 29
Last Quarter

Hourly Weather History & Observations

Time (MDT) Temp. Heat Index Dew Point Humidity Pressure Visibility Wind Dir Wind Speed Gust Speed Precip Events Conditions
12:58 AM 68.9 °F - 50.9 °F 53% 29.81 in 10.0 mi SE 4.6 mph - N/A   Partly Cloudy
1:58 AM 66.0 °F - 52.3 °F 61% 29.80 in 10.0 mi NE 8.1 mph - N/A   Partly Cloudy
2:58 AM 68.2 °F - 51.1 °F 54% 29.81 in 10.0 mi ENE 4.6 mph - N/A   Partly Cloudy
3:58 AM 66.2 °F - 51.3 °F 59% 29.79 in 10.0 mi NE 8.1 mph - N/A   Mostly Cloudy
4:58 AM 66.6 °F - 50.4 °F 56% 29.80 in 10.0 mi East 4.6 mph - N/A   Overcast
5:58 AM 66.7 °F - 50.7 °F 56% 29.81 in 10.0 mi Variable 2.3 mph - N/A   Overcast
6:58 AM 65.1 °F - 51.6 °F 62% 29.87 in 10.0 mi ENE 9.2 mph - N/A   Mostly Cloudy
7:58 AM 66.2 °F - 52.0 °F 60% 29.87 in 10.0 mi Variable 5.8 mph - N/A   Partly Cloudy
8:58 AM 72.5 °F - 52.3 °F 49% 29.87 in 10.0 mi NE 10.4 mph - N/A   Scattered Clouds
9:58 AM 74.8 °F - 55.0 °F 50% 29.87 in 10.0 mi ESE 12.7 mph - N/A   Scattered Clouds
10:58 AM 78.3 °F - 52.9 °F 41% 29.87 in 10.0 mi ESE 8.1 mph - N/A   Partly Cloudy
11:58 AM 83.1 °F - 50.5 °F 32% 29.86 in 10.0 mi South 12.7 mph - N/A   Partly Cloudy
12:58 PM 84.7 °F - 50.5 °F 31% 29.86 in 10.0 mi South 16.1 mph - N/A   Mostly Cloudy
1:58 PM 86.2 °F - 52.0 °F 31% 29.84 in 10.0 mi South 13.8 mph - N/A   Mostly Cloudy
2:58 PM 85.3 °F - 50.2 °F 30% 29.81 in 10.0 mi SSE 8.1 mph - N/A   Mostly Cloudy
3:36 PM 86.0 °F - 51.8 °F 31% 30.00 in 10.0 mi SE 8.1 mph - N/A Thunderstorm Thunderstorm
3:51 PM 87.8 °F - 50.0 °F 27% 30.00 in 10.0 mi South 23.0 mph 32.2 mph N/A   Scattered Clouds
3:56 PM 86.0 °F 84.2 °F 53.6 °F 33% 30.00 in 10.0 mi SSE 26.5 mph 34.5 mph N/A   Scattered Clouds
3:58 PM 86.0 °F - 51.4 °F 30% 29.81 in 10.0 mi SSE 28.8 mph 34.5 mph N/A   Scattered Clouds
4:59 PM 84.6 °F - 47.1 °F 27% 29.83 in 10.0 mi SSE 15.0 mph - N/A   Overcast
5:58 PM 84.9 °F - 48.9 °F 29% 29.82 in 10.0 mi SSE 16.1 mph - N/A   Mostly Cloudy
6:22 PM 80.6 °F - 50.0 °F 34% 30.02 in 10.0 mi WNW 20.7 mph 26.5 mph N/A   Mostly Cloudy
6:32 PM 78.8 °F - 51.8 °F 39% 30.03 in 10.0 mi West 18.4 mph 26.5 mph N/A   Overcast
6:36 PM 77.0 °F - 51.8 °F 41% 30.04 in 10.0 mi West 15.0 mph 26.5 mph N/A Thunderstorm Thunderstorm
6:52 PM 75.2 °F - 53.6 °F 47% 30.04 in 10.0 mi WNW 19.6 mph 23.0 mph N/A   Overcast
6:58 PM 75.6 °F - 53.2 °F 46% 29.88 in 10.0 mi West 17.3 mph 23.0 mph N/A   Overcast
7:38 PM 71.6 °F - 57.2 °F 60% 30.05 in 10.0 mi NE 10.4 mph - N/A Rain Light Rain
7:53 PM 69.8 °F - 57.2 °F 64% 30.02 in 10.0 mi East 12.7 mph - N/A   Mostly Cloudy
7:58 PM 69.6 °F - 56.8 °F 64% 29.87 in 10.0 mi East 11.5 mph - 0.00 in   Mostly Cloudy
8:59 PM 74.5 °F - 52.2 °F 46% 29.83 in 10.0 mi SE 11.5 mph 21.9 mph N/A   Overcast
9:58 PM 74.1 °F - 51.1 °F 44% 29.85 in 10.0 mi ESE 12.7 mph - N/A   Mostly Cloudy
10:58 PM 71.4 °F - 51.8 °F 50% 29.87 in 10.0 mi ESE 15.0 mph - N/A   Clear
11:58 PM 69.4 °F - 52.5 °F 55% 29.86 in 10.0 mi ESE 17.3 mph - N/A   Clear